• In Portugal
  • List of Countries
  • For 7 days
  • Water Temperature
  • Satellite Maps
  • Weather Map
  • Weather Widgets
  • user-avatar
    Login

    Hourly Weather Gaziantep

    Today, 22 October, Sunday

    Time Temperature Precipitation Wind Pressure Humidity
    00:00 +15°C° 0 mm 1 mps 671 mmHg 35%
    01:00 +14°C° 0 mm 1 mps 671 mmHg 36%
    02:00 +14°C° 0 mm 2 mps 671 mmHg 43%
    03:00 +14°C° 0 mm 1 mps 671 mmHg 45%
    04:00 +13°C° 0 mm 1 mps 671 mmHg 47%
    05:00 +13°C° 0 mm 1 mps 671 mmHg 49%
    06:00 +15°C° 0 mm 1 mps 671 mmHg 46%
    07:00 +16°C° 0 mm 1 mps 672 mmHg 43%
    08:00 +19°C° 0 mm 1 mps 672 mmHg 39%
    09:00 +19°C° 0 mm 2 mps 672 mmHg 35%
    10:00 +20°C° 0 mm 2 mps 673 mmHg 31%
    11:00 +21°C° 0 mm 2 mps 673 mmHg 27%
    12:00 +23°C° 0 mm 2 mps 673 mmHg 26%
    13:00 +23°C° 0 mm 2 mps 672 mmHg 25%
    14:00 +23°C° 0 mm 2 mps 672 mmHg 26%
    15:00 +21°C° 0 mm 2 mps 672 mmHg 30%
    16:00 +20°C° 0 mm 2 mps 672 mmHg 34%
    17:00 +19°C° 0 mm 2 mps 671 mmHg 38%
    18:00 +18°C° 0 mm 2 mps 671 mmHg 43%
    19:00 +17°C° 0 mm 2 mps 671 mmHg 48%
    20:00 +16°C° 0 mm 2 mps 671 mmHg 53%
    21:00 +15°C° 0 mm 1 mps 671 mmHg 55%
    22:00 +15°C° 0 mm 1 mps 671 mmHg 58%
    23:00 +14°C° 0 mm 1 mps 671 mmHg 60%

    Tomorrow, 23 October, Monday

    Time Temperature Precipitation Wind Pressure Humidity
    00:00 +14°C° 0 mm 1 mps 671 mmHg 62%
    01:00 +13°C° 0 mm 1 mps 671 mmHg 63%
    02:00 +13°C° 0 mm 1 mps 670 mmHg 65%
    03:00 +13°C° 0 mm 1 mps 670 mmHg 65%
    04:00 +12°C° 0 mm 1 mps 670 mmHg 65%
    05:00 +12°C° 0 mm 1 mps 670 mmHg 65%
    06:00 +14°C° 0 mm 1 mps 671 mmHg 57%
    07:00 +15°C° 0 mm 1 mps 672 mmHg 49%
    08:00 +18°C° 0 mm 1 mps 672 mmHg 40%
    09:00 +19°C° 0 mm 1 mps 673 mmHg 36%
    10:00 +20°C° 0 mm 2 mps 673 mmHg 31%
    11:00 +21°C° 0 mm 2 mps 673 mmHg 26%
    12:00 +23°C° 0 mm 2 mps 673 mmHg 25%
    13:00 +22°C° 0 mm 3 mps 673 mmHg 24%
    14:00 +24°C° 0 mm 3 mps 672 mmHg 22%
    15:00 +21°C° 0 mm 2 mps 672 mmHg 25%
    16:00 +20°C° 0 mm 2 mps 672 mmHg 28%
    17:00 +19°C° 0 mm 2 mps 671 mmHg 31%
    18:00 +18°C° 0 mm 2 mps 671 mmHg 33%
    19:00 +18°C° 0 mm 1 mps 671 mmHg 36%
    20:00 +18°C° 0 mm 1 mps 671 mmHg 38%
    21:00 +16°C° 0 mm 1 mps 671 mmHg 39%
    22:00 +16°C° 0 mm 1 mps 671 mmHg 40%
    23:00 +15°C° 0 mm 1 mps 671 mmHg 41%

    Day after tomorrow, 24 October, Tuesday

    Time Temperature Precipitation Wind Pressure Humidity
    00:00 +15°C° 0 mm 1 mps 671 mmHg 42%
    01:00 +15°C° 0 mm 1 mps 671 mmHg 42%
    02:00 +15°C° 0 mm 2 mps 671 mmHg 43%
    03:00 +14°C° 0 mm 2 mps 671 mmHg 43%
    04:00 +14°C° 0 mm 2 mps 670 mmHg 44%
    05:00 +14°C° 0 mm 2 mps 670 mmHg 44%
    06:00 +15°C° 0 mm 2 mps 671 mmHg 40%
    07:00 +16°C° 0 mm 3 mps 672 mmHg 36%
    08:00 +18°C° 0 mm 3 mps 672 mmHg 32%
    09:00 +19°C° 0 mm 3 mps 672 mmHg 29%
    10:00 +21°C° 0 mm 4 mps 673 mmHg 25%
    11:00 +22°C° 0 mm 4 mps 673 mmHg 22%
    12:00 +23°C° 0 mm 4 mps 673 mmHg 20%
    13:00 +23°C° 0 mm 4 mps 672 mmHg 19%
    14:00 +25°C° 0 mm 4 mps 672 mmHg 17%
    15:00 +22°C° 0 mm 3 mps 672 mmHg 18%
    16:00 +21°C° 0 mm 2 mps 672 mmHg 20%
    17:00 +20°C° 0 mm 2 mps 671 mmHg 21%
    18:00 +20°C° 0 mm 1 mps 671 mmHg 23%
    19:00 +19°C° 0 mm 1 mps 671 mmHg 25%
    20:00 +18°C° 0 mm 1 mps 671 mmHg 27%
    21:00 +16°C° 0 mm 1 mps 671 mmHg 29%
    22:00 +16°C° 0 mm 1 mps 672 mmHg 30%
    23:00 +15°C° 0 mm 1 mps 672 mmHg 32%

    25 October, Wednesday

    Time Temperature Precipitation Wind Pressure Humidity
    00:00 +15°C° 0 mm 1 mps 672 mmHg 33%
    01:00 +14°C° 0 mm 1 mps 671 mmHg 35%
    02:00 +14°C° 0 mm 1 mps 671 mmHg 36%
    03:00 +14°C° 0 mm 1 mps 671 mmHg 37%
    04:00 +13°C° 0 mm 1 mps 672 mmHg 37%
    05:00 +13°C° 0 mm 1 mps 672 mmHg 38%
    06:00 +15°C° 0 mm 1 mps 672 mmHg 35%
    07:00 +16°C° 0 mm 2 mps 673 mmHg 31%
    08:00 +18°C° 0 mm 2 mps 674 mmHg 28%
    09:00 +19°C° 0 mm 2 mps 674 mmHg 26%
    10:00 +20°C° 0 mm 2 mps 674 mmHg 23%
    11:00 +23°C° 0 mm 2 mps 674 mmHg 21%
    12:00 +23°C° 0 mm 2 mps 674 mmHg 21%
    13:00 +24°C° 0 mm 2 mps 674 mmHg 21%
    14:00 +24°C° 0 mm 2 mps 674 mmHg 21%
    15:00 +23°C° 0 mm 2 mps 674 mmHg 26%
    16:00 +20°C° 0 mm 3 mps 673 mmHg 31%
    17:00 +19°C° 0 mm 3 mps 673 mmHg 37%
    18:00 +18°C° 0 mm 3 mps 673 mmHg 43%
    19:00 +17°C° 0 mm 3 mps 673 mmHg 49%
    20:00 +16°C° 0 mm 2 mps 674 mmHg 56%
    21:00 +16°C° 0 mm 2 mps 674 mmHg 59%
    22:00 +15°C° 0 mm 2 mps 674 mmHg 62%
    23:00 +14°C° 0 mm 2 mps 673 mmHg 65%

    26 October, Thursday

    Time Temperature Precipitation Wind Pressure Humidity
    00:00 +14°C° 0 mm 2 mps 673 mmHg 68%
    01:00 +14°C° 0 mm 2 mps 673 mmHg 70%
    02:00 +13°C° 0 mm 2 mps 673 mmHg 72%
    03:00 +13°C° 0 mm 2 mps 673 mmHg 73%
    04:00 +13°C° 0 mm 2 mps 673 mmHg 74%
    05:00 +13°C° 0 mm 2 mps 673 mmHg 75%
    06:00 +14°C° 0 mm 2 mps 674 mmHg 70%
    07:00 +15°C° 0 mm 2 mps 674 mmHg 64%
    08:00 +16°C° 0 mm 2 mps 675 mmHg 58%
    09:00 +18°C° 0 mm 3 mps 675 mmHg 50%
    10:00 +19°C° 0 mm 3 mps 675 mmHg 43%
    11:00 +21°C° 0 mm 4 mps 675 mmHg 35%
    12:00 +21°C° 0 mm 5 mps 675 mmHg 33%
    13:00 +21°C° 0 mm 5 mps 675 mmHg 30%
    14:00 +22°C° 0 mm 5 mps 675 mmHg 28%
    15:00 +20°C° 0 mm 5 mps 674 mmHg 32%
    16:00 +19°C° 0 mm 4 mps 674 mmHg 35%
    17:00 +18°C° 0 mm 3 mps 674 mmHg 39%
    18:00 +17°C° 0 mm 3 mps 674 mmHg 43%
    19:00 +16°C° 0 mm 3 mps 674 mmHg 47%
    20:00 +15°C° 0 mm 2 mps 674 mmHg 52%
    21:00 +14°C° 0 mm 2 mps 674 mmHg 54%
    22:00 +14°C° 0 mm 2 mps 674 mmHg 57%
    23:00 +13°C° 0 mm 2 mps 674 mmHg 60%

    27 October, Friday

    Time Temperature Precipitation Wind Pressure Humidity
    00:00 +13°C° 0 mm 2 mps 674 mmHg 61%
    01:00 +12°C° 0 mm 1 mps 673 mmHg 62%
    02:00 +12°C° 0 mm 1 mps 673 mmHg 64%
    03:00 +12°C° 0 mm 1 mps 673 mmHg 64%
    04:00 +12°C° 0 mm 1 mps 673 mmHg 65%
    05:00 +11°C° 0 mm 1 mps 673 mmHg 65%
    06:00 +13°C° 0 mm 1 mps 673 mmHg 59%
    07:00 +14°C° 0 mm 1 mps 674 mmHg 53%
    08:00 +16°C° 0 mm 1 mps 674 mmHg 46%
    09:00 +18°C° 0 mm 1 mps 674 mmHg 41%
    10:00 +20°C° 0 mm 1 mps 674 mmHg 35%
    11:00 +21°C° 0 mm 1 mps 674 mmHg 30%
    12:00 +20°C° 0 mm 2 mps 674 mmHg 27%
    13:00 +21°C° 0 mm 2 mps 673 mmHg 24%
    14:00 +21°C° 0 mm 2 mps 673 mmHg 21%
    15:00 +21°C° 0 mm 1 mps 672 mmHg 23%
    16:00 +20°C° 0 mm 1 mps 672 mmHg 25%
    17:00 +19°C° 0 mm 1 mps 672 mmHg 27%
    18:00 +18°C° 0 mm 1 mps 672 mmHg 29%
    19:00 +16°C° 0 mm 1 mps 671 mmHg 30%
    20:00 +16°C° 0 mm 1 mps 671 mmHg 32%
    21:00 +15°C° 0 mm 1 mps 671 mmHg 33%
    22:00 +15°C° 0 mm 1 mps 671 mmHg 35%
    23:00 +15°C° 0 mm 1 mps 670 mmHg 36%
    Show more